{"data":{"norad_id":53667,"epoch":"2026-09-20T22:00:03.000096Z","epoch_age_seconds":46385,"freshness":"FRESH","line1":"1 53667U 22105V   26263.91670139  .00092552  00000+0  87541-3 0  9992","line2":"2 53667  97.5981 152.2279 0001506  95.6105 251.0491 15.66689013  5871","mean_motion":15.66689013,"eccentricity":0.0001506,"inclination_deg":97.5981,"raan_deg":152.2279,"arg_perigee_deg":95.6105,"mean_anomaly_deg":251.0491,"bstar":0.00087541,"rev_number":587,"period_min":91.91358259688,"perigee_km":367.36952094564,"apogee_km":369.40157353687,"semimajor_km":6746.5225472413,"source":"CELESTRAK","updated_at":"2026-09-21T09:00:32.953606Z"}}